We konden geen weer-waarchuwingen ophalen. Ga rechtstreeks naar de Meteoalarm site : www.meteoalarm.eu en controleer daar .



Onweer radar Meer informatie blitzortung!


Regen radar Meer informatie rain snow radar


Bezoek onze andere website:

Template documentation
and downloads

And another site



15 daagse weersverwachting Duisburg (DE)

  • Overzicht
  • Per uur
  • 15 dagen
  • Extra
  • Vergelijk
  • Kaarten
  • Dagkaart
  • Meer »
  • Info
  • Statistieken
  • Directe link
    Temp 6h Neerslag Wind  
 06:24     20:51    Daglengte: 14:27 Vandaag
14:00
24°
0.4 mm
2
20:00
23°
1.5 mm
2
 06:25     20:49    Daglengte: 14:24 Morgen
02:00
20°
 
2
08:00
19°
 
2
14:00
26°
 
3
20:00
26°
 
3
 06:27     20:47    Daglengte: 14:20 Vrijdag 19 Aug
02:00
21°
 
2
08:00
18°
 
2
14:00
26°
 
3
20:00
25°
0.6 mm
5
 06:29     20:45    Daglengte: 14:16 Zaterdag 20 Aug
02:00
20°
4.6 mm
2
08:00
19°
 
2
Locatie info
Region: Nordrhein-Westfalen
Latitude: 51.4315°N
Longitude: 6.7636°E
38 masl
Postcode: 47051
Temp/Neerslag /Baro Onweer/Dauwpunt
    Temp Baro 1h Neerslag Dauwpunt Wind UV Bewolking  
 06:24     20:51    Daglengte: 14:27 Vandaag
12:00
24°
1011.4 hPa
48%
14.7°
2
Windvlaag: -2.6 m/s
81%
13:00
24°
1011.4 hPa
79%
14.7°
2
Windvlaag: -2.3 m/s
81%
14:00
24°
1011.6 hPa 0.4 mm
82%
13.7°
2
Windvlaag: -3.4 m/s
85%
15:00
24°
1011.8 hPa 1.0 mm
82%
11.6°
1
Windvlaag: -3.2 m/s
86%
16:00
24°
1011.4 hPa 0.5 mm
82%
10.4°
1
Windvlaag: -3.7 m/s
83%
17:00
24°
1011.4 hPa
82%
9.8°
2
Windvlaag: -3 m/s
73%
18:00
23°
1011.3 hPa
79%
9.2°
1
Windvlaag: -1.5 m/s
27%
19:00
24°
1011.1 hPa
71%
9.3°
2
Windvlaag: -2.2 m/s
61%
20:00
23°
1011.2 hPa
25%
10.9°
2
Windvlaag: -2.3 m/s
57%
21:00
22°
1011.6 hPa
24%
13.6°
2
Windvlaag: -2.1 m/s
72%
22:00
21°
1011.8 hPa
14%
14.4°
2
Windvlaag: -2.1 m/s
35%
23:00
21°
1012.0 hPa
16%
15.3°
2
Windvlaag: -1.3 m/s
26%
 06:25     20:49    Daglengte: 14:24 Morgen
00:00
20°
1012.2 hPa
15%
16.4°
2
Windvlaag: -1.6 m/s
39%
01:00
20°
1012.2 hPa
14%
17.0°
2
Windvlaag: -1.9 m/s
51%
02:00
20°
1012.1 hPa
14%
17.2°
2
Windvlaag: -1.9 m/s
18%
03:00
19°
1012.1 hPa
14%
17.7°
2
Windvlaag: -1.5 m/s
46%
04:00
19°
1011.9 hPa
15%
18.2°
2
Windvlaag: -1.4 m/s
40%
05:00
19°
1011.7 hPa
14%
18.2°
2
Windvlaag: -1.3 m/s
21%
06:00
18°
1011.8 hPa
14%
18.0°
2
Windvlaag: -1 m/s
31%
07:00
18°
1012.0 hPa
14%
17.8°
2
Windvlaag: -1 m/s
54%
08:00
19°
1012.2 hPa
14%
17.5°
2
Windvlaag: -1.2 m/s
25%
09:00
19°
1012.3 hPa
14%
16.8°
2
Windvlaag: -1.7 m/s
66%
10:00
21°
1012.4 hPa
14%
16.7°
2
Windvlaag: -1.4 m/s
58%
11:00
23°
1012.4 hPa
14%
15.8°
2
Windvlaag: -1.4 m/s
37%
12:00
24°
1012.4 hPa
14%
14.3°
3
Windvlaag: -1.8 m/s
21%
13:00
25°
1012.3 hPa
22%
12.9°
3
Windvlaag: -2.1 m/s
21%
14:00
26°
1012.0 hPa
73%
12.1°
3
Windvlaag: -1.8 m/s
43%
15:00
27°
Voelt als: 26.6°
1011.5 hPa
41%
11.7°
2
Windvlaag: -1.6 m/s
39%
16:00
27°
Voelt als: 26.7°
1011.1 hPa
76%
11.5°
3
Windvlaag: -1.1 m/s
80%
17:00
27°
Voelt als: 26.9°
1010.9 hPa
34%
12.1°
3
Windvlaag: -1.8 m/s
40%
18:00
27°
Voelt als: 26.8°
1010.6 hPa
69%
11.9°
3
Windvlaag: -1.7 m/s
59%
19:00
27°
1010.8 hPa
30%
13.0°
3
Windvlaag: -1.9 m/s
79%
20:00
26°
1010.9 hPa
62%
14.1°
3
Windvlaag: -1.8 m/s
76%
21:00
25°
1011.3 hPa
65%
14.7°
3
Windvlaag: -1.8 m/s
27%
22:00
24°
1011.3 hPa
19%
15.2°
3
Windvlaag: -1.6 m/s
24%
23:00
23°
1011.8 hPa
72%
15.9°
3
Windvlaag: -0.9 m/s
74%
 06:27     20:47    Daglengte: 14:20 Vrijdag 19 Aug
00:00
22°
1012.0 hPa
70%
17.0°
3
Windvlaag: -2.3 m/s
69%
01:00
21°
1012.0 hPa
31%
17.7°
3
Windvlaag: -2.1 m/s
64%
02:00
21°
1012.0 hPa
36%
17.8°
2
Windvlaag: -0.8 m/s
61%
03:00
20°
1012.1 hPa
33%
17.5°
3
Windvlaag: -0.5 m/s
39%
04:00
19°
1012.1 hPa
66%
17.4°
2
Windvlaag: -0.7 m/s
40%
05:00
18°
1012.6 hPa
25%
17.1°
2
Windvlaag: -0.8 m/s
40%
06:00
18°
1012.9 hPa
21%
17.2°
2
Windvlaag: -0.1 m/s
20%
07:00
18°
1013.5 hPa
21%
17.1°
2
Windvlaag: -0.3 m/s
56%
08:00
18°
1013.9 hPa
21%
17.0°
2
Windvlaag: 1 m/s
58%
09:00
18°
1014.2 hPa
21%
16.3°
2
Windvlaag: 1.5 m/s
71%
10:00
19°
1014.3 hPa
21%
14.5°
2
Windvlaag: 1.8 m/s
35%
11:00
21°
1014.4 hPa
21%
13.0°
2
Windvlaag: 2.3 m/s
27%
12:00
23°
1014.3 hPa
21%
12.6°
3
Windvlaag: 1.9 m/s
17%
13:00
24°
1014.0 hPa
21%
13.0°
3
Windvlaag: 2.1 m/s
21%
14:00
26°
1013.7 hPa
21%
12.6°
3
Windvlaag: 2.1 m/s
44%
15:00
27°
1013.3 hPa
21%
13.2°
3
Windvlaag: 2.1 m/s
39%
16:00
27°
1013.1 hPa
21%
14.6°
4
Windvlaag: 1.9 m/s
30%
17:00
26°
1012.9 hPa
21%
16.2°
5
Windvlaag: 1.9 m/s
58%
18:00
26°
1012.8 hPa
21%
16.1°
4
Windvlaag: 1.9 m/s
71%
19:00
26°
1013.0 hPa
21%
15.9°
4
Windvlaag: 1.7 m/s
55%
20:00
25°
1013.4 hPa 0.6 mm
21%
15.0°
5
Windvlaag: 0.2 m/s
80%
21:00
23°
1014.4 hPa 2.8 mm
22%
13.5°
4
Windvlaag: 0.3 m/s
81%
22:00
22°
1014.8 hPa 1.1 mm
24%
14.3°
4
Windvlaag: 1.9 m/s
70%
23:00
21°
1015.2 hPa 0.6 mm
25%
14.7°
3
Windvlaag: 1.5 m/s
40%
 06:29     20:45    Daglengte: 14:16 Zaterdag 20 Aug
00:00
21°
1015.0 hPa
24%
16.8°
2
Windvlaag: 7.5 m/s
4%
01:00
20°
1015.0 hPa
27%
17.1°
2
Windvlaag: 6.1 m/s
45%
02:00
20°
1014.9 hPa
25%
17.4°
2
Windvlaag: 5.5 m/s
0%
03:00
19°
1014.9 hPa
27%
17.4°
2
Windvlaag: 3.6 m/s
54%
04:00
19°
1015.0 hPa
34%
17.5°
2
Windvlaag: 3.3 m/s
54%
05:00
19°
1015.1 hPa
89%
17.8°
2
Windvlaag: 0.7 m/s
47%
06:00
18°
1015.2 hPa
89%
17.7°
2
Windvlaag: 0.2 m/s
61%
07:00
18°
1015.4 hPa
84%
18.3°
2
Windvlaag: 1 m/s
80%
08:00
19°
1015.7 hPa
23%
17.9°
2
Windvlaag: 0.6 m/s
61%
09:00
16°
1017.2 hPa 1.4 mm
100%
14.4°
0
Windvlaag: 1.1 m/s
9%
10:00
18°
1017.1 hPa 1.4 mm
100%
13.6°
1
Windvlaag: 2.7 m/s
27%
11:00
20°
1017.1 hPa 1.4 mm
100%
12.6°
2
Windvlaag: 3.8 m/s
12%
Temp/Neerslag /Baro Onweer/Dauwpunt
    Temp Baro Neerslag Dauwpunt Wind Bewolking  
 06:24     20:51    Daglengte: 14:27 Vandaag
14:00
24°
1011.6 hPa 0.4 mm 13.7°
2
85%
17:00
24°
1011.4 hPa 1.5 mm 9.8°
2
73%
20:00
23°
1011.2 hPa   10.9°
2
57%
23:00
21°
1012.0 hPa   15.3°
2
26%
 06:25     20:49    Daglengte: 14:24 Morgen
02:00
20°
1012.1 hPa   17.2°
2
18%
05:00
19°
1011.7 hPa   18.2°
2
21%
08:00
19°
1012.2 hPa   17.5°
2
25%
11:00
23°
1012.4 hPa   15.8°
2
37%
14:00
26°
1012.0 hPa   12.1°
3
43%
17:00
27°
Voelt als: 26.9°
1010.9 hPa   12.1°
3
40%
20:00
26°
1010.9 hPa   14.1°
3
76%
23:00
23°
1011.8 hPa   15.9°
3
74%
 06:27     20:47    Daglengte: 14:20 Vrijdag 19 Aug
02:00
21°
1012.0 hPa   17.8°
2
61%
05:00
18°
1012.6 hPa   17.1°
2
40%
08:00
18°
1013.9 hPa   17.0°
2
58%
11:00
21°
1014.4 hPa   13.0°
2
27%
14:00
26°
1013.7 hPa   12.6°
3
44%
17:00
26°
1012.9 hPa   16.2°
5
58%
20:00
25°
1013.4 hPa 0.6 mm 15.0°
5
80%
23:00
21°
1015.2 hPa 4.6 mm 14.7°
3
40%
 06:29     20:45    Daglengte: 14:16 Zaterdag 20 Aug
02:00
20°
1014.9 hPa   17.4°
2
0%
05:00
19°
1015.1 hPa   17.8°
2
47%
08:00
19°
1015.7 hPa   17.9°
2
61%
11:00
20°
1017.1 hPa 4.1 mm 12.6°
2
12%
14:00
24°
1016.2 hPa 4.1 mm 10.7°
3
72%
17:00
27°
Voelt als: 26.5°
1015.6 hPa 8.7 mm 8.0°
3
0%
20:00
23°
1016.7 hPa 8.7 mm 8.9°
5
0%
23:00
19°
1018.0 hPa 8.7 mm 10.2°
2
0%
 06:30     20:42    Daglengte: 14:12 Zondag 21 Aug
02:00
17°
1018.4 hPa 8.7 mm 11.0°
1
0%
05:00
16°
1018.0 hPa 8.7 mm 10.9°
2
1%
08:00
17°
1017.9 hPa 8.7 mm 11.3°
2
1%
11:00
21°
1017.1 hPa 8.7 mm 10.2°
3
1%
14:00
25°
1015.8 hPa 8.7 mm 10.4°
3
1%
17:00
23°
1015.5 hPa 8.8 mm 11.6°
4
1%
20:00
21°
1015.7 hPa 9.4 mm 13.5°
2
1%
23:00
17°
1015.9 hPa 9.4 mm 11.0°
1
1%
 06:32     20:40    Daglengte: 14:08 Maandag 22 Aug
02:00
16°
1015.8 hPa 9.4 mm 9.8°
1
1%
05:00
15°
1015.6 hPa 9.4 mm 10.2°
1
0%
08:00
17°
1016.3 hPa 9.4 mm 11.1°
1
0%
11:00
23°
1015.9 hPa 9.4 mm 9.7°
1
0%
14:00
26°
Voelt als: 26.1°
1015.0 hPa 9.4 mm 8.7°
0
1%
17:00
27°
Voelt als: 26.3°
1013.6 hPa 9.4 mm 7.7°
1
1%
20:00
24°
1012.6 hPa 9.4 mm 10.2°
3
1%
23:00
22°
1012.9 hPa 9.4 mm 7.9°
3
1%
 06:33     20:38    Daglengte: 14:05 Dinsdag 23 Aug
02:00
22°
1013.3 hPa 9.4 mm 8.2°
2
1%
05:00
22°
1013.0 hPa 9.4 mm 8.4°
1
1%
08:00
21°
1013.7 hPa 9.4 mm 8.9°
1
1%
11:00
23°
1014.9 hPa 9.4 mm 10.1°
3
1%
14:00
24°
1014.4 hPa 9.4 mm 12.0°
2
1%
17:00
27°
Voelt als: 26.8°
1013.2 hPa 9.4 mm 11.8°
2
1%
20:00
24°
1013.3 hPa 9.4 mm 13.6°
1
1%
23:00
23°
1014.0 hPa 9.4 mm 12.8°
1
1%
 06:35     20:36    Daglengte: 14:01 Woensdag 24 Aug
02:00
21°
1013.8 hPa 9.4 mm 13.5°
2
1%
05:00
20°
1013.4 hPa 9.4 mm 12.9°
2
1%
08:00
21°
1013.7 hPa 9.4 mm 12.9°
2
1%
11:00
26°
1013.6 hPa   13.9°
3
1%
14:00
30°
Voelt als: 29.2°
1012.4 hPa 18.7 mm 13.9°
2
1%
20:00
26°
1012.1 hPa 18.9 mm 15.9°
2
1%
 06:37     20:34    Daglengte: 13:57 Donderdag 25 Aug
02:00
20°
1013.6 hPa 22.9 mm 19.0°
4
1%
08:00
20°
1014.9 hPa 37.8 mm 18.8°
1
1%
14:00
26°
1015.7 hPa 55.2 mm 17.2°
3
1%
20:00
23°
1016.9 hPa 62.7 mm 19.0°
2
0%
 06:38     20:32    Daglengte: 13:54 Vrijdag 26 Aug
02:00
19°
1018.8 hPa 63.3 mm 17.7°
1
0%
08:00
19°
1019.3 hPa 63.3 mm 17.2°
1
0%
14:00
27°
1018.4 hPa 63.3 mm 14.7°
1
1%
20:00
24°
1017.9 hPa 63.3 mm 16.0°
3
1%
 06:40     20:30    Daglengte: 13:50 Zaterdag 27 Aug
02:00
21°
1018.2 hPa 63.3 mm 16.3°
2
1%
08:00
18°
1019.5 hPa   12.8°
2
39%
14:00
28°
Voelt als: 27.5°
1018.6 hPa   12.3°
2
40%
20:00
25°
1018.5 hPa 0.5 mm 13.5°
2
50%
 06:41     20:28    Daglengte: 13:47 Zondag 28 Aug
02:00
19°
1020.0 hPa 0.5 mm 13.1°
2
42%
08:00
18°
1020.2 hPa 0.5 mm 13.3°
2
42%
14:00
28°
Voelt als: 27.8°
1019.2 hPa 0.1 mm 13.2°
1
39%
20:00
26°
1018.4 hPa 0.2 mm 13.2°
2
47%
 06:43     20:25    Daglengte: 13:42 Maandag 29 Aug
02:00
20°
1019.6 hPa 0.5 mm 13.6°
2
51%
08:00
19°
1019.6 hPa 0.3 mm 13.8°
1
50%
14:00
29°
Voelt als: 28.1°
1018.9 hPa 0.2 mm 13.2°
0
42%
20:00
25°
1018.3 hPa 0.5 mm 13.8°
1
52%
 06:44     20:23    Daglengte: 13:39 Dinsdag 30 Aug
02:00
19°
1019.4 hPa 0.4 mm 13.3°
1
40%
08:00
18°
1019.2 hPa 0.2 mm 13.4°
0
42%
14:00
28°
Voelt als: 27.4°
1018.2 hPa 0.2 mm 12.8°
0
47%
20:00
24°
1017.5 hPa 0.5 mm 13.0°
1
50%
 06:46     20:21    Daglengte: 13:35 Woensdag 31 Aug
02:00
19°
1018.4 hPa 0.6 mm 13.6°
1
48%
08:00
18°
1018.0 hPa 0.4 mm 13.5°
0
46%
14:00
26°
1017.1 hPa 0.4 mm 12.9°
1
54%
20:00
23°
1016.6 hPa 0.6 mm 12.7°
1
45%
 06:48     20:19    Daglengte: 13:31 Donderdag 01 Sep
02:00
18°
1017.8 hPa 0.5 mm 12.9°
1
52%
08:00
17°
1017.5 hPa 0.1 mm 12.5°
0
49%
  CAPE Lifted Index Hail Supercell Tornado SRH 3km CL BTM PRES CL TOP PRES Swiss DWD icon SMHI TS
 06:24     20:51    Daglengte: 14:27 Vandaag
12:00 41 J/kg -0.8 K 0 % 0 % 0 % 0 m²/s² 0 0 -0.77 3
13:00 96 J/kg -0.7 K 0 % 0 % 0 % 0 m²/s² 0 0 -0.7 3
14:00 174 J/kg -1.1 K 0 % 0 % 0 % 0 m²/s² 0 0 -1.1 61
15:00 322 J/kg -1.5 K 0 % 0 % 0 % 0 m²/s² 0 0 -1.47 61
16:00 444 J/kg -1.9 K 0 % 0 % 0 % 0 m²/s² 0 0 -1.18 61
17:00 515 J/kg -2.3 K 0 % 0 % 0 % 0 m²/s² 0 0 -0.8 80
18:00 574 J/kg -2.6 K 0 % 0 % 0 % 0 m²/s² 0 0 -0.8 80
19:00 650 J/kg -2.9 K 0 % 0 % 0 % 0 m²/s² 0 0 -0.71 3
20:00 632 J/kg -3.1 K 0 % 0 % 0 % 0 m²/s² 0 0 -0.64 3
21:00 657 J/kg -3.3 K 0 % 0 % 0 % 0 m²/s² 0 0 -0.51 3
22:00 603 J/kg -3.3 K 0 % 0 % 0 % 0 m²/s² 0 0 -0.51 3
23:00 403 J/kg -2.7 K 0 % 0 % 0 % 0 m²/s² 0 0 0.24 3
 06:25     20:49    Daglengte: 14:24 Morgen
00:00 235 J/kg -2.5 K 0 % 0 % 0 % 0 m²/s² 0 0 0.35 3
01:00 0 J/kg -2.9 K 0 % 0 % 0 % 0 m²/s² 0 0 -0.44 3
02:00 0 J/kg -2.5 K 0 % 0 % 0 % 0 m²/s² 0 0 0.11 2
03:00 0 J/kg -1.3 K 0 % 0 % 0 % 0 m²/s² 0 0 1.31 3
04:00 0 J/kg -0.4 K 0 % 0 % 0 % 0 m²/s² 0 0 1.91 3
05:00 1 J/kg 0.1 K 0 % 0 % 0 % 0 m²/s² 0 0 2.08 2
06:00 1 J/kg 0.1 K 0 % 0 % 0 % 0 m²/s² 0 0 1.75 3
07:00 2 J/kg 0.4 K 0 % 0 % 0 % 0 m²/s² 0 0 1.9 3
08:00 2 J/kg 0.9 K 0 % 0 % 0 % 0 m²/s² 0 0 2.52 45
09:00 3 J/kg 1.5 K 0 % 0 % 0 % 0 m²/s² 0 0 3.12 3
10:00 3 J/kg 1.6 K 0 % 0 % 0 % 0 m²/s² 0 0 3.1 3
11:00 4 J/kg 2.0 K 0 % 0 % 0 % 0 m²/s² 0 0 3.32 3
12:00 4 J/kg 0.9 K 0 % 0 % 0 % 0 m²/s² 0 0 1.92 2
13:00 31 J/kg 0.1 K 0 % 0 % 0 % 0 m²/s² 0 0 1.06 2
14:00 73 J/kg -0.3 K 0 % 0 % 0 % 0 m²/s² 0 0 0.45 3
15:00 56 J/kg -0.1 K 0 % 0 % 0 % 0 m²/s² 0 0 0.56 3
16:00 16 J/kg 0.0 K 0 % 0 % 0 % 0 m²/s² 0 0 0.48 3
17:00 33 J/kg -0.2 K 0 % 0 % 0 % 0 m²/s² 0 0 0.25 3
18:00 47 J/kg -0.3 K 0 % 0 % 0 % 0 m²/s² 0 0 0.27 3
19:00 23 J/kg -0.3 K 0 % 0 % 0 % 0 m²/s² 0 0 0.51 3
20:00 20 J/kg -0.2 K 0 % 0 % 0 % 0 m²/s² 0 0 1.03 3
21:00 0 J/kg 0.6 K 0 % 0 % 0 % 0 m²/s² 0 0 2.46 3
22:00 0 J/kg 0.8 K 0 % 0 % 0 % 0 m²/s² 0 0 2.93 3
23:00 0 J/kg 1.7 K 0 % 0 % 0 % 0 m²/s² 0 0 3.95 3
 06:27     20:47    Daglengte: 14:20 Vrijdag 19 Aug
00:00 0 J/kg 2.8 K 0 % 0 % 0 % 0 m²/s² 0 0 5.2 3
01:00 0 J/kg 3.9 K 0 % 0 % 0 % 0 m²/s² 0 0 6.39 3
02:00 0 J/kg 4.6 K 0 % 0 % 0 % 0 m²/s² 0 0 7.15 3
03:00 0 J/kg 5.4 K 0 % 0 % 0 % 0 m²/s² 0 0 7.95 3
04:00 0 J/kg 5.8 K 0 % 0 % 0 % 0 m²/s² 0 0 8.35 3
05:00 0 J/kg 6.1 K 0 % 0 % 0 % 0 m²/s² 0 0 8.74 3
06:00 0 J/kg 6.6 K 0 % 0 % 0 % 0 m²/s² 0 0 9.3 2
07:00 0 J/kg 6.7 K 0 % 0 % 0 % 0 m²/s² 0 0 9.55 3
08:00 0 J/kg 6.0 K 0 % 0 % 0 % 0 m²/s² 0 0 9.03 3
09:00 0 J/kg 4.5 K 0 % 0 % 0 % 0 m²/s² 0 0 7.68 3
10:00 0 J/kg 3.8 K 0 % 0 % 0 % 0 m²/s² 0 0 6.89 2
11:00 0 J/kg 3.2 K 0 % 0 % 0 % 0 m²/s² 0 0 6.05 1
12:00 0 J/kg 3.0 K 0 % 0 % 0 % 0 m²/s² 0 0 5.76 1
13:00 0 J/kg 2.9 K 0 % 0 % 0 % 0 m²/s² 0 0 5.84 1
14:00 0 J/kg 2.0 K 0 % 0 % 0 % 0 m²/s² 0 0 4.85 2
15:00 19 J/kg 0.9 K 0 % 0 % 0 % 0 m²/s² 0 0 3.99 2
16:00 130 J/kg -0.2 K 0 % 0 % 0 % 0 m²/s² 0 0 2.74 2
17:00 242 J/kg -1.0 K 0 % 0 % 0 % 0 m²/s² 0 0 1.1 3
18:00 281 J/kg -1.2 K 0 % 0 % 0 % 0 m²/s² 0 0 0.39 3
19:00 333 J/kg -1.4 K 0 % 0 % 0 % 0 m²/s² 0 0 -0.44 2
20:00 231 J/kg -0.8 K 0 % 0 % 0 % 0 m²/s² 0 0 -0.44 2
21:00 74 J/kg 0.2 K 0 % 0 % 0 % 0 m²/s² 0 0 0.41 2
22:00 0 J/kg 0.7 K 0 % 0 % 0 % 0 m²/s² 0 0 1.75 2
23:00 0 J/kg 1.2 K 0 % 0 % 0 % 0 m²/s² 0 0 3.57 2
 06:29     20:45    Daglengte: 14:16 Zaterdag 20 Aug
00:00 0 J/kg 1.5 K 0 % 0 % 0 % 0 m²/s² 0 0 5.91 2
01:00 0 J/kg 2.2 K 0 % 0 % 0 % 0 m²/s² 0 0 7.24 3
02:00 0 J/kg 2.2 K 0 % 0 % 0 % 0 m²/s² 0 0 8.62 2
03:00 0 J/kg 2.3 K 0 % 0 % 0 % 0 m²/s² 0 0 11.03 3
04:00 0 J/kg 2.5 K 0 % 0 % 0 % 0 m²/s² 0 0 11.62 3
05:00 0 J/kg 3.0 K 0 % 0 % 0 % 0 m²/s² 0 0 10.8 3
06:00 0 J/kg 3.0 K 0 % 0 % 0 % 0 m²/s² 0 0 9.42 3
07:00 0 J/kg 3.2 K 0 % 0 % 0 % 0 m²/s² 0 0 8.93 3
08:00 0 J/kg 3.4 K 0 % 0 % 0 % 0 m²/s² 0 0 8.68 3
09:00 0 J/kg 2.8 K 0 % 0 % 0 % 0 m²/s² 0 0 7.81
10:00 0 J/kg 2.7 K 0 % 0 % 0 % 0 m²/s² 0 0 7.59
11:00 0 J/kg 2.7 K 0 % 0 % 0 % 0 m²/s² 0 0 7.44
Temp Baro Wind Neerslag
  EWN Forecast EWN WRFDA DWD ICON FMI HIRLAM MET Norway GFS
 06:24     20:51    Daglengte: 14:27 Vandaag
14:00 24.3° 1011.6 hPa 1.6 m/s 0.4 mm 21.6° 1011.7 hPa 2.3 m/s 3.4 mm 24.1° 1012.1 hPa 1.6 m/s -1.6 mm 28.2° 1011.3 hPa 1.3 m/s 0.0 mm 18.7° 1012.3 hPa 2.2 m/s
17:00 23.7° 1011.4 hPa 1.5 m/s 1.5 mm 23.9° 1011.5 hPa 2.3 m/s 3.8 mm 22.8° 1012.4 hPa 1.5 m/s 0.8 mm 30.0° 1010.0 hPa 1.0 m/s 0.0 mm 23.0° 1011.9 hPa 1.7 m/s
20:00 23.0° 1011.2 hPa 2.3 m/s 0.0 mm 23.6° 1011.4 hPa 2.6 m/s 3.8 mm 22.1° 1011.9 hPa 1.6 m/s 0.4 mm 28.6° 1010.2 hPa 3.6 m/s 0.0 mm 22.0° 1011.4 hPa 2.3 m/s
23:00 20.7° 1012.0 hPa 2.1 m/s 0.0 mm 20.8° 1011.5 hPa 3.2 m/s 3.8 mm 20.1° 1012.6 hPa 1.2 m/s 0.0 mm 24.5° 1011.7 hPa 3.1 m/s 0.0 mm 18.7° 1012.4 hPa 2.5 m/s
 06:25     20:49    Daglengte: 14:24 Morgen
02:00 19.7° 1012.1 hPa 2.0 m/s 0.0 mm 17.7° 1011.5 hPa 3.2 m/s 3.8 mm 18.7° 1012.6 hPa 1.5 m/s 0.0 mm 21.7° 1011.3 hPa 3.5 m/s 0.0 mm 17.6° 1013.1 hPa 1.6 m/s
05:00 18.9° 1011.7 hPa 1.9 m/s 0.0 mm 16.1° 1011.2 hPa 2.5 m/s 3.8 mm 18.2° 1012.5 hPa 1.6 m/s 0.0 mm 19.4° 1010.6 hPa 3.2 m/s 0.0 mm 16.5° 1012.8 hPa 1.5 m/s
08:00 18.8° 1012.2 hPa 2.1 m/s 0.0 mm 16.2° 1011.6 hPa 2.7 m/s 3.8 mm 18.7° 1012.7 hPa 0.9 m/s 0.0 mm 19.1° 1011.0 hPa 4.1 m/s 0.0 mm 17.5° 1013.5 hPa 2.2 m/s
11:00 22.6° 1012.4 hPa 2.4 m/s 0.0 mm 18.8° 1011.9 hPa 2.8 m/s 3.9 mm 23.0° 1012.8 hPa 2.0 m/s 0.0 mm 25.4° 1010.6 hPa 4.3 m/s 0.0 mm 22.8° 1013.9 hPa 2.0 m/s
14:00 26.1° 1012.0 hPa 2.6 m/s 0.0 mm 23.8° 1011.7 hPa 1.9 m/s 3.9 mm 25.8° 1012.5 hPa 2.2 m/s 0.0 mm 31.6° 1009.4 hPa 5.9 m/s 0.0 mm 24.5° 1013.1 hPa 1.7 m/s
17:00 27.1° 1010.9 hPa 3.0 m/s 0.0 mm 25.8° 1010.1 hPa 3.6 m/s 3.9 mm 26.6° 1011.5 hPa 1.9 m/s 0.0 mm 31.6° 1007.8 hPa 6.1 m/s 0.0 mm 23.3° 1012.2 hPa 2.0 m/s
20:00 26.1° 1010.9 hPa 3.5 m/s 0.0 mm 25.2° 1009.6 hPa 5.2 m/s 3.9 mm 26.0° 1011.6 hPa 1.0 m/s 0.0 mm 29.3° 1008.4 hPa 7.5 m/s 0.0 mm 22.7° 1012.5 hPa 1.5 m/s
23:00 23.0° 1011.8 hPa 2.9 m/s 0.0 mm 20.7° 1011.7 hPa 3.8 m/s 3.9 mm 23.1° 1012.1 hPa 0.9 m/s 0.0 mm 25.3° 1009.9 hPa 6.5 m/s 0.0 mm 19.8° 1013.1 hPa 1.9 m/s
 06:27     20:47    Daglengte: 14:20 Vrijdag 19 Aug
02:00 20.7° 1012.0 hPa 2.4 m/s 0.0 mm 17.2° 1011.9 hPa 2.5 m/s 3.9 mm 21.7° 1012.4 hPa 0.8 m/s 0.0 mm 21.2° 1009.6 hPa 5.4 m/s 0.0 mm 18.5° 1013.8 hPa 1.7 m/s
05:00 18.3° 1012.6 hPa 2.0 m/s 0.0 mm 14.9° 1012.0 hPa 1.4 m/s 3.9 mm 20.1° 1012.6 hPa 2.1 m/s 0.0 mm 17.4° 1013.1 hPa 1.1 m/s
08:00 17.8° 1013.9 hPa 2.4 m/s 0.0 mm 14.9° 1013.0 hPa 1.7 m/s 3.9 mm 18.4° 1013.9 hPa 2.5 m/s 0.0 mm 19.0° 1014.1 hPa 0.4 m/s
11:00 20.7° 1014.4 hPa 2.4 m/s 0.0 mm 20.4° 1013.9 hPa 0.8 m/s 3.9 mm 22.2° 1014.3 hPa 2.6 m/s 0.0 mm 24.6° 1014.5 hPa 1.5 m/s
14:00 25.8° 1013.7 hPa 2.9 m/s 0.0 mm 25.9° 1012.8 hPa 1.7 m/s 3.9 mm 27.2° 1013.5 hPa 2.9 m/s 0.0 mm 27.3° 1013.1 hPa 2.5 m/s
17:00 26.4° 1012.9 hPa 4.7 m/s 0.0 mm 25.8° 1012.4 hPa 4.9 m/s 3.9 mm 27.7° 1012.7 hPa 4.8 m/s 0.0 mm 25.4° 1013.4 hPa 2.3 m/s
20:00 24.9° 1013.4 hPa 4.9 m/s 0.6 mm 25.0° 1013.2 hPa 4.9 m/s 4.0 mm 25.9° 1013.1 hPa 3.3 m/s 0.0 mm 24.1° 1013.6 hPa 1.8 m/s
23:00 20.5° 1015.2 hPa 2.9 m/s 4.6 mm 20.4° 1015.3 hPa 3.7 m/s 4.1 mm 22.2° 1014.6 hPa 2.8 m/s 0.0 mm 19.2° 1015.4 hPa 2.3 m/s
 06:29     20:45    Daglengte: 14:16 Zaterdag 20 Aug
02:00 19.6° 1014.9 hPa 1.7 m/s 0.0 mm 16.9° 1016.0 hPa 1.9 m/s 4.1 mm 20.3° 1014.7 hPa 1.6 m/s 0.0 mm 17.7° 1016.3 hPa 1.7 m/s
05:00 18.6° 1015.1 hPa 1.7 m/s 0.0 mm 14.9° 1016.3 hPa 0.6 m/s 4.1 mm 19.6° 1014.8 hPa 2.0 m/s 0.0 mm 17.6° 1016.6 hPa 1.5 m/s
08:00 18.5° 1015.7 hPa 2.4 m/s 0.0 mm 14.9° 1017.1 hPa 0.4 m/s 4.1 mm 19.4° 1015.4 hPa 2.9 m/s 0.1 mm 17.8° 1017.2 hPa 1.4 m/s
11:00 20.3° 1017.1 hPa 1.8 m/s 4.1 mm 20.3° 1017.1 hPa 1.8 m/s 4.1 mm 22.2° 1017.1 hPa 2.0 m/s
14:00 24.5° 1016.2 hPa 2.7 m/s 4.1 mm 24.5° 1016.2 hPa 2.7 m/s 4.1 mm 26.1° 1016.1 hPa 3.6 m/s
17:00 27.2° 1015.6 hPa 3.2 m/s 8.7 mm 27.2° 1015.6 hPa 3.2 m/s 8.7 mm
20:00 23.3° 1016.7 hPa 5.2 m/s 8.7 mm 23.3° 1016.7 hPa 5.2 m/s 8.7 mm
23:00 18.5° 1018.0 hPa 2.5 m/s 8.7 mm 18.5° 1018.0 hPa 2.5 m/s 8.7 mm
 06:30     20:42    Daglengte: 14:12 Zondag 21 Aug
02:00 16.9° 1018.4 hPa 1.4 m/s 8.7 mm 16.9° 1018.4 hPa 1.4 m/s 8.7 mm
05:00 16.1° 1018.0 hPa 1.8 m/s 8.7 mm 16.1° 1018.0 hPa 1.8 m/s 8.7 mm
08:00 17.0° 1017.9 hPa 2.3 m/s 8.7 mm 17.0° 1017.9 hPa 2.3 m/s 8.7 mm
11:00 21.4° 1017.1 hPa 3.2 m/s 8.7 mm 21.4° 1017.1 hPa 3.2 m/s 8.7 mm
14:00 24.5° 1015.8 hPa 3.1 m/s 8.7 mm 24.5° 1015.8 hPa 3.1 m/s 8.7 mm
17:00 23.2° 1015.5 hPa 3.5 m/s 8.8 mm 23.2° 1015.5 hPa 3.5 m/s 8.8 mm
20:00 20.7° 1015.7 hPa 1.8 m/s 9.4 mm 20.7° 1015.7 hPa 1.8 m/s 9.4 mm
23:00 17.3° 1015.9 hPa 0.7 m/s 9.4 mm 17.3° 1015.9 hPa 0.7 m/s 9.4 mm
 06:32     20:40    Daglengte: 14:08 Maandag 22 Aug
02:00 16.3° 1015.8 hPa 1.0 m/s 9.4 mm 16.3° 1015.8 hPa 1.0 m/s 9.4 mm
05:00 15.2° 1015.6 hPa 1.0 m/s 9.4 mm 15.2° 1015.6 hPa 1.0 m/s 9.4 mm
08:00 16.5° 1016.3 hPa 0.7 m/s 9.4 mm 16.5° 1016.3 hPa 0.7 m/s 9.4 mm
11:00 22.6° 1015.9 hPa 0.9 m/s 9.4 mm 22.6° 1015.9 hPa 0.9 m/s 9.4 mm
14:00 26.3° 1015.0 hPa 0.2 m/s 9.4 mm 26.3° 1015.0 hPa 0.2 m/s 9.4 mm
17:00 26.9° 1013.6 hPa 0.8 m/s 9.4 mm 26.9° 1013.6 hPa 0.8 m/s 9.4 mm
20:00 23.5° 1012.6 hPa 2.8 m/s 9.4 mm 23.5° 1012.6 hPa 2.8 m/s 9.4 mm
23:00 21.8° 1012.9 hPa 3.1 m/s 9.4 mm 21.8° 1012.9 hPa 3.1 m/s 9.4 mm
 06:33     20:38    Daglengte: 14:05 Dinsdag 23 Aug
02:00 22.2° 1013.3 hPa 1.7 m/s 9.4 mm 22.2° 1013.3 hPa 1.7 m/s 9.4 mm
05:00 21.6° 1013.0 hPa 0.5 m/s 9.4 mm 21.6° 1013.0 hPa 0.5 m/s 9.4 mm
08:00 21.0° 1013.7 hPa 1.2 m/s 9.4 mm 21.0° 1013.7 hPa 1.2 m/s 9.4 mm
11:00 23.1° 1014.9 hPa 2.9 m/s 9.4 mm 23.1° 1014.9 hPa 2.9 m/s 9.4 mm
14:00 24.4° 1014.4 hPa 2.4 m/s 9.4 mm 24.4° 1014.4 hPa 2.4 m/s 9.4 mm
17:00 27.0° 1013.2 hPa 2.3 m/s 9.4 mm 27.0° 1013.2 hPa 2.3 m/s 9.4 mm
20:00 23.7° 1013.3 hPa 1.1 m/s 9.4 mm 23.7° 1013.3 hPa 1.1 m/s 9.4 mm
23:00 22.8° 1014.0 hPa 1.4 m/s 9.4 mm 22.8° 1014.0 hPa 1.4 m/s 9.4 mm
 06:35     20:36    Daglengte: 14:01 Woensdag 24 Aug
02:00 21.2° 1013.8 hPa 2.0 m/s 9.4 mm 21.2° 1013.8 hPa 2.0 m/s 9.4 mm
05:00 20.4° 1013.4 hPa 2.1 m/s 9.4 mm 20.4° 1013.4 hPa 2.1 m/s 9.4 mm
08:00 21.1° 1013.7 hPa 2.2 m/s 9.4 mm 21.1° 1013.7 hPa 2.2 m/s 9.4 mm
11:00 25.7° 1013.6 hPa 2.7 m/s 9.4 mm 25.7° 1013.6 hPa 2.7 m/s 9.4 mm
14:00 29.7° 1012.4 hPa 2.1 m/s 9.4 mm 29.7° 1012.4 hPa 2.1 m/s 9.4 mm
20:00 26.2° 1012.1 hPa 1.8 m/s 9.5 mm 26.2° 1012.1 hPa 1.8 m/s 9.5 mm
 06:37     20:34    Daglengte: 13:57 Donderdag 25 Aug
02:00 20.1° 1013.6 hPa 3.8 m/s 12.7 mm 20.1° 1013.6 hPa 3.8 m/s 12.7 mm
08:00 20.0° 1014.9 hPa 0.8 m/s 19.6 mm 20.0° 1014.9 hPa 0.8 m/s 19.6 mm
14:00 25.7° 1015.7 hPa 2.9 m/s 29.3 mm 25.7° 1015.7 hPa 2.9 m/s 29.3 mm
20:00 22.6° 1016.9 hPa 1.7 m/s 31.6 mm 22.6° 1016.9 hPa 1.7 m/s 31.6 mm
 06:38     20:32    Daglengte: 13:54 Vrijdag 26 Aug
02:00 18.9° 1018.8 hPa 1.2 m/s 31.6 mm 18.9° 1018.8 hPa 1.2 m/s 31.6 mm
08:00 18.8° 1019.3 hPa 0.7 m/s 31.6 mm 18.8° 1019.3 hPa 0.7 m/s 31.6 mm
14:00 27.3° 1018.4 hPa 1.4 m/s 31.6 mm 27.3° 1018.4 hPa 1.4 m/s 31.6 mm
20:00 23.6° 1017.9 hPa 2.9 m/s 31.6 mm 23.6° 1017.9 hPa 2.9 m/s 31.6 mm
 06:40     20:30    Daglengte: 13:50 Zaterdag 27 Aug
02:00 21.3° 1018.2 hPa 1.7 m/s 31.6 mm 21.3° 1018.2 hPa 1.7 m/s 31.6 mm
08:00 18.3° 1019.5 hPa 1.6 m/s 0.0 mm
14:00 28.0° 1018.6 hPa 1.6 m/s 0.0 mm
20:00 25.0° 1018.5 hPa 2.0 m/s 0.5 mm
 06:41     20:28    Daglengte: 13:47 Zondag 28 Aug
02:00 19.0° 1020.0 hPa 1.9 m/s 0.5 mm
08:00 18.1° 1020.2 hPa 1.7 m/s 0.5 mm
14:00 28.2° 1019.2 hPa 1.3 m/s 0.1 mm
20:00 25.6° 1018.4 hPa 1.7 m/s 0.2 mm
 06:43     20:25    Daglengte: 13:42 Maandag 29 Aug
02:00 20.0° 1019.6 hPa 1.8 m/s 0.5 mm
08:00 19.1° 1019.6 hPa 1.4 m/s 0.3 mm
14:00 28.5° 1018.9 hPa 0.4 m/s 0.2 mm
20:00 25.2° 1018.3 hPa 0.9 m/s 0.5 mm
 06:44     20:23    Daglengte: 13:39 Dinsdag 30 Aug
02:00 19.5° 1019.4 hPa 0.8 m/s 0.4 mm
08:00 18.4° 1019.2 hPa 0.4 m/s 0.2 mm
14:00 27.7° 1018.2 hPa 0.4 m/s 0.2 mm
20:00 24.4° 1017.5 hPa 0.8 m/s 0.5 mm
 06:46     20:21    Daglengte: 13:35 Woensdag 31 Aug
02:00 18.9° 1018.4 hPa 0.6 m/s 0.6 mm
08:00 17.9° 1018.0 hPa 0.2 m/s 0.4 mm
14:00 26.5° 1017.1 hPa 0.8 m/s 0.4 mm
20:00 23.4° 1016.6 hPa 1.4 m/s 0.6 mm
 06:48     20:19    Daglengte: 13:31 Donderdag 01 Sep
02:00 18.2° 1017.8 hPa 0.5 m/s 0.5 mm
08:00 17.1° 1017.5 hPa 0.1 m/s 0.1 mm
FMI Hirlam - 7.5 km EWN WRFDA - 12 km DWD ICON - 7 km GFS - 25 km Basiskaart






























































Updatetijd (Europe/Amsterdam) Resolutie Lengte Stap
FMI Hirlam 07:15, 13:15, 19:15, 01:15 7.5 km 49h 1h
EWN WRFDA 10:15, 16:15, 22:15, 04:15 12 km 73h 1h
DWD ICON 11:45, 17:45, 23:45, 05:45 7 km 75h 1h
GFS 08:15, 14:15, 20:15, 02:15 25 km 237h 3h
30+ mm
25-30 mm
20-25 mm
15-20 mm
10-15 mm
6-10 mm
4-6 mm
2-4 mm
1-2 mm
0.5-1 mm
0.2-0.5 mm
0.1-0.2 mm
30+ mm
25-30 mm
20-25 mm
15-20 mm
10-15 mm
6-10 mm
4-6 mm
2-4 mm
1-2 mm
0.5-1 mm
0.2-0.5 mm
0.1-0.2 mm
Sneeuwval
Natte sneeuw
Hagel
Vorst
30+ mm
25-30 mm
20-25 mm
15-20 mm
10-15 mm
6-10 mm
4-6 mm
2-4 mm
1-2 mm
0.5-1 mm
0.2-0.5 mm
0.1-0.2 mm
Sneeuwval
Natte sneeuw
Hagel
Vorst
Onweer
50 mm
40 mm
30 mm
26 mm
22 mm
18 mm
14 mm
10 mm
9 mm
8 mm
7 mm
6 mm
5 mm
4.5 mm
4 mm
3.5 mm
3 mm
2.5 mm
2 mm
1.5 mm
1 mm
0.8 mm
0.6 mm
0.4 mm
0.2 mm
0.05 mm
35°
30°
25°
20°
15°
10°
-5°
-10°
-15°
-20°
-25°
-30°
-35°
33> m/s
29 m/s
25 m/s
21 m/s
17 m/s
14 m/s
11 m/s
8 m/s
5 m/s
3 m/s
0 m/s
2600 J/kg
2400 J/kg
2200 J/kg
2000 J/kg
1800 J/kg
1600 J/kg
1400 J/kg
1200 J/kg
1000 J/kg
800 J/kg
600 J/kg
400 J/kg
200 J/kg
70 dBZ
65 dBZ
60 dBZ
55 dBZ
50 dBZ
45 dBZ
40 dBZ
35 dBZ
30 dBZ
25 dBZ
20 dBZ
15 dBZ
10 dBZ
5 dBZ
-1 K
-2 K
-3 K
-4 K
-5 K
-6 K
-7 K
-8 K
-9 K
950 m²/s²
900 m²/s²
850 m²/s²
800 m²/s²
750 m²/s²
700 m²/s²
650 m²/s²
600 m²/s²
550 m²/s²
500 m²/s²
450 m²/s²
400 m²/s²
350 m²/s²
300 m²/s²
250 m²/s²
200 m²/s²
150 m²/s²
100 m²/s²
46 m/s
44 m/s
42 m/s
40 m/s
38 m/s
36 m/s
34 m/s
32 m/s
30 m/s
28 m/s
26 m/s
24 m/s
22 m/s
20 m/s
16 m/s
12 m/s
8 m/s
4 m/s
30 m/s
28 m/s
26 m/s
24 m/s
22 m/s
20 m/s
18 m/s
16 m/s
14 m/s
12 m/s
10 m/s
8 m/s
6 m/s
4 m/s
2 m/s
3.0
2.8
2.6
2.4
2.2
2.0
1.8
1.6
1.4
1.2
1.0
0.8
0.6
0.4
0.2
15
14
13
12
11
10
9
8
7
6
5
4
3
2
1
90%
80%
70%
60%
50%
40%
30%
20%
10%
42
40
38
36
34
32
30
28
26
24
22
20
18
16
14
12
90+ cm
80-90 cm
70-80 cm
60-70 cm
50-60 cm
40-50 cm
30-40 cm
20-30 cm
10-20 cm
1-10 cm
Sneeuwval
Natte sneeuw
Regen
>120 mm
115 mm
110 mm
105 mm
100 mm
95 mm
90 mm
85 mm
80 mm
75 mm
70 mm
65 mm
60 mm
55 mm
50 mm
45 mm
45 mm
40 mm
35 mm
30 mm
25 mm
20 mm
15 mm
10 mm
5 mm
0.1 mm
960 hPa
880 hPa
800 hPa
720 hPa
640 hPa
560 hPa
584 gpdm
568 gpdm
552 gpdm
536 gpdm
520 gpdm
504 gpdm
488 gpdm
Extreem zwaar Noodweer Kans op onweer
15% 15% 5% 50% 15%

Dag




Kaart






35°
30°
25°
20°
15°
10°
-5°
-10°
-15°
-20°
-25°
-30°
-35°
33> m/s
29 m/s
25 m/s
21 m/s
17 m/s
14 m/s
11 m/s
8 m/s
5 m/s
3 m/s
0 m/s
Extreem zwaar Noodweer Kans op onweer
15% 15% 5% 50% 15%
>120 mm
115 mm
110 mm
105 mm
100 mm
95 mm
90 mm
85 mm
80 mm
75 mm
70 mm
65 mm
60 mm
55 mm
50 mm
45 mm
45 mm
40 mm
35 mm
30 mm
25 mm
20 mm